Date,TemperatureHighF,TemperatureAvgF,TemperatureLowF,DewpointHighF,DewpointAvgF,DewpointLowF,HumidityHigh,HumidityAvg,HumidityLow,PressureMaxIn,PressureMinIn,WindSpeedMaxMPH,WindSpeedAvgMPH,GustSpeedMaxMPH,PrecipitationSumIn
2013-1-1,26.0,17.2,4.0,16.0,7.5,-1.0,89,67,48,0.00,40.00,5,3,13,0.01
2013-1-2,28.0,10.8,0.0,5.0,-0.4,-5.0,82,63,30,0.00,40.00,2,1,7,0.02
2013-1-3,24.0,10.5,1.0,3.0,-0.6,-5.0,80,62,39,0.00,40.00,3,2,6,0.01
2013-1-4,27.0,12.2,-1.0,0.0,-5.3,-10.0,73,47,24,0.00,40.00,3,2,6,0.01
2013-1-5,36.0,19.0,8.0,7.0,1.6,-3.0,65,48,29,0.00,40.00,3,2,8,0.03
2013-1-6,39.0,22.5,10.0,8.0,3.5,-2.0,66,45,26,0.00,40.00,3,2,8,0.05
2013-1-7,39.0,26.6,19.0,11.0,7.7,3.0,62,46,27,0.00,40.00,3,2,8,0.07
2013-1-8,43.0,27.4,17.0,9.0,5.7,2.0,59,42,20,0.00,40.00,4,2,12,0.01
2013-1-9,42.0,27.4,18.0,12.0,8.7,5.0,59,46,27,0.00,40.00,3,2,7,0.01
2013-1-10,44.0,31.0,18.0,14.0,8.9,5.0,59,41,26,0.00,40.00,4,2,9,0.00
2013-1-11,38.0,24.2,2.0,19.0,3.9,-10.0,70,43,23,0.00,40.00,6,4,17,0.00
2013-1-12,20.0,8.0,0.0,0.0,-9.1,-15.0,62,47,25,0.00,40.00,4,2,8,0.00
2013-1-13,21.0,8.9,-1.0,-2.0,-8.0,-14.0,61,47,32,0.00,40.00,4,2,9,0.00
2013-1-14,21.0,9.4,1.0,12.0,0.3,-9.0,83,66,48,0.00,40.00,3,1,10,0.00
2013-1-15,19.0,6.4,-4.0,3.0,-5.8,-12.0,82,60,24,0.00,40.00,6,2,15,0.01
2013-1-16,36.0,16.7,3.0,9.0,2.0,-7.0,72,54,31,0.00,40.00,3,2,8,0.01
2013-1-17,45.0,27.0,16.0,15.0,12.6,8.0,74,57,30,0.00,40.00,3,2,8,0.01
2013-1-18,43.0,28.0,17.0,16.0,13.1,11.0,77,56,31,0.00,40.00,4,2,10,0.00
2013-1-19,47.0,27.4,17.0,12.0,8.8,4.0,72,48,21,0.00,40.00,4,2,8,0.00
2013-1-20,46.0,28.8,19.0,10.0,3.7,0.0,50,36,16,0.00,40.00,3,2,7,0.00
2013-1-21,47.0,27.6,16.0,10.0,6.8,3.0,58,43,22,0.00,40.00,4,2,8,0.00
2013-1-22,52.0,32.5,21.0,11.0,6.6,3.0,52,36,16,0.00,40.00,3,2,8,0.00
2013-1-23,52.0,36.1,21.0,12.0,5.1,1.0,44,28,14,0.00,40.00,3,2,7,0.00
2013-1-24,53.0,40.0,28.0,22.0,12.3,5.0,62,33,17,0.00,40.00,5,3,13,0.00
2013-1-25,50.0,39.9,32.0,34.0,30.7,22.0,90,70,50,0.00,40.00,4,2,12,0.00
2013-1-26,49.0,39.5,32.0,41.0,34.5,29.0,95,83,58,0.00,40.00,4,2,11,0.24
2013-1-27,48.0,40.4,35.0,35.0,32.0,27.0,89,73,50,0.00,40.00,4,2,9,0.08
2013-1-28,43.0,37.1,28.0,35.0,30.2,23.0,89,76,60,0.00,40.00,4,2,14,0.04
2013-1-29,28.0,22.3,14.0,23.0,13.4,4.0,87,69,42,0.00,40.00,6,4,15,0.01
2013-1-30,30.0,19.5,7.0,15.0,6.8,2.0,81,59,42,0.00,40.00,6,3,14,0.04
2013-1-31,43.0,32.2,24.0,19.0,16.0,11.0,74,52,29,0.00,40.00,6,3,13,0.06
2013-2-1,46.0,31.2,21.0,17.0,12.4,7.0,71,48,26,0.00,40.00,7,2,14,0.01
2013-2-2,49.0,32.6,22.0,21.0,15.8,9.0,75,53,29,0.00,40.00,3,2,7,0.01
2013-2-3,47.0,35.6,27.0,19.0,14.6,10.0,56,43,25,0.00,40.00,4,1,9,0.00
2013-2-4,49.0,34.6,24.0,20.0,16.9,10.0,83,53,21,0.00,40.00,4,2,12,0.00
2013-2-5,53.0,34.2,23.0,18.0,14.9,9.0,72,49,17,0.00,40.00,3,2,8,0.00
2013-2-6,50.0,37.8,26.0,21.0,16.8,13.0,62,44,27,0.00,40.00,3,2,9,0.00
2013-2-7,48.0,35.4,26.0,25.0,19.8,15.0,77,55,28,0.00,40.00,3,2,7,0.00
2013-2-8,47.0,36.3,24.0,20.0,18.0,14.0,77,50,31,0.00,40.00,7,3,24,0.00
2013-2-9,43.0,33.0,22.0,16.0,10.1,3.0,67,41,21,0.00,40.00,6,4,21,0.00
2013-2-10,34.0,26.2,20.0,15.0,10.9,8.0,69,53,37,0.00,40.00,4,2,9,0.00
2013-2-11,35.0,25.9,16.0,20.0,9.8,1.0,91,55,24,0.00,40.00,5,2,12,0.00
2013-2-12,33.0,20.0,8.0,14.0,6.7,-2.0,89,61,24,0.00,40.00,5,2,13,0.06
2013-2-13,42.0,24.9,12.0,13.0,8.9,5.0,75,53,26,0.00,40.00,5,2,11,0.06
2013-2-14,43.0,28.2,16.0,18.0,11.7,8.0,77,53,27,0.00,40.00,5,2,13,0.00
2013-2-15,41.0,29.3,20.0,21.0,11.5,-2.0,90,53,22,0.00,40.00,5,2,12,0.00
2013-2-16,48.0,30.7,18.0,8.0,4.2,1.0,50,35,16,0.00,40.00,5,2,13,0.00
2013-2-17,53.0,35.6,24.0,11.0,0.3,-11.0,47,26,7,0.00,40.00,4,2,12,0.00
2013-2-18,42.0,31.5,21.0,10.0,-0.8,-9.0,47,27,11,0.00,40.00,5,3,12,0.00
2013-2-19,50.0,34.4,18.0,28.0,2.5,-16.0,69,27,15,0.00,40.00,6,3,16,0.00
2013-2-20,42.0,33.1,21.0,28.0,23.6,11.0,93,70,29,0.00,40.00,6,3,16,0.02
2013-2-21,38.0,27.5,21.0,23.0,18.4,13.0,91,70,44,0.00,40.00,5,2,12,0.03
2013-2-22,37.0,25.4,18.0,25.0,17.7,11.0,86,72,45,0.00,40.00,5,2,15,0.01
2013-2-23,45.0,27.7,11.0,12.0,7.1,2.0,82,45,23,0.00,40.00,5,3,13,0.01
2013-2-24,37.0,26.9,21.0,22.0,13.6,5.0,93,61,27,0.00,40.00,10,4,23,0.01
2013-2-25,39.0,26.2,15.0,11.0,6.0,2.0,66,45,23,0.00,40.00,6,4,15,0.09
2013-2-26,40.0,27.4,15.0,9.0,2.3,-12.0,63,35,13,0.00,40.00,7,3,17,0.08
2013-2-27,38.0,23.5,10.0,8.0,3.4,-2.0,70,46,18,0.00,40.00,6,2,13,0.00
2013-2-28,42.0,27.5,14.0,6.0,0.4,-9.0,55,35,11,0.00,40.00,5,2,12,0.00
2013-3-1,48.0,32.7,18.0,18.0,10.0,5.0,61,41,22,0.00,40.00,5,2,12,0.00
2013-3-2,56.0,38.5,24.0,18.0,15.4,12.0,69,43,18,0.00,40.00,4,2,13,0.00
2013-3-3,60.0,45.1,33.0,19.0,13.3,5.0,50,30,11,0.00,40.00,4,2,12,0.00
2013-3-4,51.0,43.0,31.0,21.0,18.1,15.0,53,37,27,0.00,40.00,5,2,14,0.00
2013-3-5,54.0,39.7,24.0,16.0,10.1,5.0,65,33,16,0.00,40.00,4,2,13,0.00
2013-3-6,58.0,43.5,31.0,22.0,17.1,12.0,53,36,22,0.00,40.00,4,2,13,0.00
2013-3-7,62.0,47.6,32.0,17.0,10.8,-4.0,45,25,7,0.00,40.00,5,2,12,0.00
2013-3-8,56.0,42.5,33.0,33.0,20.5,12.0,94,47,20,0.00,40.00,5,3,16,0.09
2013-3-9,39.0,29.8,25.0,31.0,22.0,17.0,95,74,42,0.00,40.00,3,1,10,0.24
2013-3-10,40.0,31.7,25.0,24.0,18.7,14.0,92,62,35,0.00,40.00,5,2,12,0.03
2013-3-11,51.0,36.1,23.0,20.0,17.4,12.0,78,51,24,0.00,40.00,4,2,11,0.03
2013-3-12,56.0,40.6,27.0,23.0,20.7,18.0,76,48,24,0.00,40.00,3,2,9,0.00
2013-3-13,60.0,43.9,31.0,24.0,20.8,18.0,67,44,19,0.00,40.00,5,2,13,0.00
2013-3-14,66.0,46.5,32.0,23.0,17.9,10.0,59,36,11,0.00,40.00,5,3,14,0.00
2013-3-15,68.0,51.5,36.0,20.0,16.1,12.0,47,27,11,0.00,40.00,4,2,12,0.00
2013-3-16,60.0,49.3,40.0,32.0,20.4,15.0,67,33,20,0.00,40.00,6,3,13,0.00
2013-3-17,58.0,43.9,31.0,34.0,19.7,-1.0,78,46,12,0.00,40.00,6,3,22,0.00
2013-3-18,54.0,40.2,29.0,12.0,5.0,-4.0,44,26,10,0.00,40.00,7,3,18,0.00
2013-3-19,48.0,40.1,32.0,17.0,8.3,0.0,48,27,15,0.00,40.00,5,2,12,0.00
2013-3-20,54.0,40.4,24.0,21.0,15.7,13.0,64,40,22,0.00,40.00,4,2,12,0.00
2013-3-21,60.0,46.0,33.0,27.0,17.4,3.0,55,36,10,0.00,40.00,7,3,21,0.00
2013-3-22,56.0,41.6,28.0,22.0,8.3,2.0,48,27,11,0.00,40.00,6,3,16,0.00
2013-3-23,40.0,29.7,15.0,22.0,0.1,-17.0,55,31,11,0.00,40.00,7,3,19,0.00
2013-3-24,43.0,25.1,11.0,-2.0,-5.6,-10.0,46,28,13,0.00,40.00,5,2,13,0.00
2013-3-25,46.0,27.8,10.0,6.0,-0.2,-6.0,68,34,11,0.00,40.00,5,2,12,0.00
2013-3-26,56.0,39.7,19.0,10.0,6.5,2.0,49,27,15,0.00,40.00,4,2,11,0.00
2013-3-27,62.0,48.9,36.0,15.0,8.5,3.0,34,21,10,0.00,40.00,5,2,17,0.00
2013-3-28,66.0,56.8,44.0,16.0,7.4,6.0,29,14,9,0.00,40.00,4,3,15,0.00
2013-3-29,64.0,49.5,37.0,20.0,16.4,12.0,42,27,17,0.00,40.00,4,2,14,0.00
2013-3-30,67.0,50.5,37.0,25.0,17.2,-99.9,53,31,15,0.00,40.00,5,3,13,0.00
2013-3-31,64.0,49.3,34.0,27.0,20.6,14.0,52,33,19,0.00,40.00,4,2,15,0.00
2013-4-1,67.0,52.6,37.0,26.0,15.4,2.0,58,27,10,0.00,40.00,5,2,11,0.00
2013-4-2,60.0,46.6,33.0,23.0,13.3,5.0,55,28,14,0.00,40.00,5,2,14,0.00
2013-4-3,56.0,41.4,26.0,27.0,22.4,18.0,82,50,24,0.00,40.00,5,2,13,0.00
2013-4-4,65.0,48.3,31.0,25.0,16.5,5.0,67,34,10,0.00,40.00,4,2,11,0.00
2013-4-5,68.0,54.5,41.0,15.0,10.0,8.0,29,18,10,0.00,40.00,5,3,15,0.00
2013-4-6,67.0,53.7,38.0,23.0,18.3,14.0,42,26,14,0.00,40.00,4,2,11,0.00
2013-4-7,67.0,53.1,40.0,22.0,16.9,10.0,43,26,12,0.00,40.00,5,3,18,0.00
2013-4-8,68.0,53.3,40.0,24.0,17.2,8.0,43,26,12,0.00,40.00,6,4,19,0.00
2013-4-9,56.0,40.1,31.0,32.0,24.9,16.0,91,57,20,0.00,40.00,6,3,16,0.06
2013-4-10,40.0,33.2,28.0,30.0,25.4,18.0,94,74,51,0.00,40.00,3,2,11,0.17
2013-4-11,56.0,39.9,22.0,30.0,22.9,18.0,86,55,29,0.00,40.00,5,2,13,0.01
2013-4-12,62.0,45.1,35.0,30.0,25.5,19.0,76,51,21,0.00,40.00,4,2,12,0.00
2013-4-13,66.0,50.3,32.0,25.0,17.4,10.0,63,32,13,0.00,40.00,5,3,15,0.00
2013-4-14,66.0,54.0,43.0,23.0,20.1,15.0,37,27,17,0.00,40.00,6,3,17,0.00
2013-4-15,71.0,54.3,41.0,21.0,17.3,9.0,44,26,9,0.00,40.00,6,3,18,0.00
2013-4-16,71.0,57.7,46.0,19.0,11.6,2.0,33,17,7,0.00,40.00,7,4,20,0.00
2013-4-17,54.0,43.2,26.0,31.0,18.8,2.0,95,47,12,0.00,40.00,6,3,13,0.00
2013-4-18,38.0,27.0,14.0,23.0,12.2,6.0,89,57,29,0.00,40.00,5,2,14,0.18
2013-4-19,57.0,37.5,19.0,11.0,2.2,-6.0,54,25,11,0.00,40.00,6,3,13,0.11
2013-4-20,56.0,45.5,33.0,19.0,12.5,1.0,44,28,11,0.00,40.00,6,2,21,0.00
2013-4-21,65.0,46.7,31.0,19.0,14.0,3.0,56,31,12,0.00,40.00,5,3,12,0.00
2013-4-22,73.0,56.4,40.0,15.0,11.5,7.0,33,19,8,0.00,40.00,5,3,15,0.00
2013-4-23,55.0,47.0,29.0,34.0,15.3,-16.0,76,32,7,0.00,40.00,4,2,16,0.00
2013-4-24,62.0,41.5,18.0,18.0,7.8,1.0,60,30,10,0.00,40.00,4,2,12,0.00
2013-4-25,67.0,50.1,39.0,38.0,22.1,9.0,60,35,20,0.00,40.00,6,2,17,0.01
2013-4-26,65.0,49.7,34.0,34.0,25.8,16.0,86,45,15,0.00,40.00,6,3,20,0.01
2013-4-27,69.0,51.7,34.0,26.0,17.5,10.0,60,31,11,0.00,40.00,4,2,11,0.00
2013-4-28,74.0,55.8,39.0,13.0,7.1,-3.0,29,16,5,0.00,40.00,4,2,12,0.00
2013-4-29,78.0,60.4,42.0,15.0,10.6,6.0,26,15,8,0.00,40.00,7,3,16,0.00
2013-4-30,79.0,63.4,47.0,16.0,10.7,5.0,23,14,7,0.00,40.00,6,3,17,0.00
2013-5-1,75.0,61.2,46.0,26.0,14.2,-8.0,41,17,9,0.00,40.00,5,3,16,0.00
2013-5-2,55.0,41.3,27.0,24.0,7.5,-8.0,57,30,8,0.00,40.00,6,3,16,0.00
2013-5-3,63.0,40.8,21.0,12.0,6.7,3.0,55,29,9,0.00,40.00,4,2,10,0.00
2013-5-4,69.0,51.6,32.0,10.0,6.0,2.0,32,18,7,0.00,40.00,5,3,12,0.00
2013-5-5,66.0,52.0,35.0,27.0,15.6,6.0,38,24,16,0.00,40.00,4,3,15,0.00
2013-5-6,61.0,50.3,39.0,33.0,25.3,16.0,49,38,28,0.00,40.00,5,2,14,0.00
2013-5-7,68.0,53.4,38.0,29.0,24.8,16.0,63,37,15,0.00,40.00,4,2,13,0.00
2013-5-8,64.0,49.8,34.0,33.0,20.6,10.0,75,38,13,0.00,40.00,4,2,17,0.00
2013-5-9,65.0,49.0,37.0,28.0,21.3,17.0,49,35,17,0.00,40.00,5,3,16,0.00
2013-5-10,61.0,47.9,34.0,40.0,27.6,-99.9,91,50,28,0.00,40.00,5,2,15,0.14
2013-5-11,62.0,47.2,34.0,38.0,32.4,-99.9,96,63,30,0.00,40.00,3,2,14,0.14
2013-5-12,73.0,54.5,37.0,33.0,28.1,22.0,74,41,16,0.00,40.00,5,3,15,0.01
2013-5-13,78.0,60.6,44.0,30.0,26.7,25.0,49,30,14,0.00,40.00,4,2,12,0.00
2013-5-14,79.0,59.5,45.0,35.0,25.2,18.0,47,29,12,0.00,40.00,6,2,17,0.00
2013-5-15,76.0,59.9,49.0,38.0,34.8,29.0,60,41,21,0.00,40.00,6,2,14,0.00
2013-5-16,80.0,59.2,45.0,30.0,5.5,-99.9,46,23,7,0.00,40.00,4,3,16,0.00
2013-5-17,80.0,64.3,47.0,21.0,9.4,-99.9,25,14,6,0.00,40.00,5,3,13,0.00
2013-5-18,72.0,60.9,47.0,21.0,15.9,6.0,30,18,11,0.00,40.00,5,3,17,0.00
2013-5-19,66.0,54.3,46.0,31.0,23.1,10.0,44,31,12,0.00,40.00,5,2,15,0.00
2013-5-20,66.0,51.4,37.0,29.0,25.9,20.0,59,39,19,0.00,40.00,5,2,18,0.00
2013-5-21,73.0,54.5,35.0,30.0,21.9,10.0,72,35,11,0.00,40.00,6,3,17,0.00
2013-5-22,80.0,63.5,45.0,20.0,14.4,9.0,32,17,7,0.00,40.00,5,3,13,0.00
2013-5-23,87.0,70.0,52.0,33.0,14.2,0.0,28,14,4,0.00,40.00,6,4,16,0.00
2013-5-24,83.0,66.9,49.0,40.0,28.1,8.0,61,29,7,0.00,40.00,5,3,15,0.00
2013-5-25,84.0,68.3,51.0,35.0,21.0,8.0,47,21,6,0.00,40.00,5,3,16,0.00
2013-5-26,81.0,66.5,51.0,12.0,5.7,-2.0,20,10,4,0.00,40.00,5,3,15,0.00
2013-5-27,76.0,60.9,45.0,13.0,4.9,0.0,21,11,5,0.00,40.00,5,2,14,0.00
2013-5-28,79.0,63.8,47.0,14.0,5.3,-10.0,23,12,3,0.00,40.00,5,3,15,0.00
2013-5-29,73.0,61.1,45.0,33.0,17.6,4.0,44,21,9,0.00,40.00,5,3,15,0.00
2013-5-30,78.0,60.5,41.0,22.0,14.9,9.0,35,19,7,0.00,40.00,6,3,17,0.00
2013-5-31,79.0,64.3,48.0,28.0,14.8,0.0,42,17,5,0.00,40.00,7,4,22,0.00
2013-6-1,79.0,62.0,42.0,23.0,4.3,-99.9,21,12,3,0.00,40.00,4,3,12,0.00
2013-6-2,84.0,64.6,45.0,32.0,27.2,20.0,41,26,12,0.00,40.00,5,3,16,0.00
2013-6-3,83.0,68.5,53.0,45.0,30.4,7.0,60,29,7,0.00,40.00,5,2,15,0.01
2013-6-4,86.0,69.2,51.0,23.0,16.6,9.0,29,15,6,0.00,40.00,4,2,11,0.01
2013-6-5,83.0,65.3,55.0,34.0,24.8,11.0,32,22,14,0.00,40.00,5,3,20,0.00
2013-6-6,80.0,62.0,44.0,40.0,31.8,25.0,64,35,17,0.00,40.00,6,2,18,0.00
2013-6-7,81.0,59.8,43.0,42.0,36.0,30.0,77,44,19,0.00,40.00,11,2,26,0.02
2013-6-8,88.0,67.6,49.0,39.0,31.9,26.0,56,31,11,0.00,40.00,5,2,18,0.01
2013-6-9,90.0,70.5,50.0,43.0,34.2,24.0,65,31,9,0.00,40.00,4,2,17,0.00
2013-6-10,94.0,80.9,60.0,44.0,30.1,13.0,46,19,5,0.00,40.00,6,3,15,0.00
2013-6-11,93.0,77.8,61.0,27.0,16.0,0.0,23,11,4,0.00,40.00,4,3,15,0.00
2013-6-12,95.0,78.1,59.0,36.0,15.5,8.0,23,11,5,0.00,40.00,4,2,11,0.00
2013-6-13,90.0,73.7,58.0,48.0,32.6,20.0,69,24,8,0.00,40.00,6,3,17,0.00
2013-6-14,85.0,66.0,54.0,50.0,43.0,36.0,71,45,22,0.00,40.00,7,2,20,0.06
2013-6-15,87.0,72.1,56.0,44.0,34.9,21.0,56,30,10,0.00,40.00,6,3,16,0.01
2013-6-16,87.0,71.9,54.0,36.0,31.7,25.0,43,25,12,0.00,40.00,5,3,14,0.00
2013-6-17,84.0,70.0,54.0,40.0,32.1,28.0,41,26,15,0.00,40.00,5,2,16,0.00
2013-6-18,84.0,68.2,51.0,47.0,38.4,23.0,75,39,11,0.00,40.00,5,2,15,0.00
2013-6-19,89.0,76.5,56.0,40.0,21.7,-12.0,45,19,2,0.00,40.00,5,3,14,0.00
2013-6-20,87.0,76.4,54.0,19.0,10.8,-2.0,22,9,4,0.00,40.00,5,3,14,0.00
2013-6-22,85.0,78.7,61.0,15.0,8.3,3.0,11,7,5,0.00,40.00,5,3,14,0.00
2013-6-23,86.0,72.1,55.0,15.0,6.8,2.0,15,9,4,0.00,40.00,5,3,12,0.00
2013-6-24,86.0,72.5,57.0,15.0,7.3,-4.0,14,9,3,0.00,40.00,6,3,15,0.00
2013-6-25,89.0,72.8,53.0,22.0,15.3,-1.0,22,12,8,0.00,40.00,4,2,14,0.00
2013-6-26,94.0,76.5,56.0,27.0,22.9,17.0,29,16,6,0.00,40.00,5,3,12,0.00
2013-6-27,95.0,78.6,63.0,29.0,25.0,21.0,22,15,8,0.00,40.00,5,3,21,0.00
2013-6-28,90.0,74.1,65.0,48.0,40.9,27.0,53,32,16,0.00,40.00,7,3,18,0.00
2013-6-29,89.0,69.3,54.0,41.0,38.5,31.0,58,36,14,0.00,40.00,5,2,12,0.00
2013-6-30,88.0,69.0,56.0,51.0,41.3,30.0,65,40,14,0.00,40.00,8,3,19,0.02
2013-7-1,81.0,64.1,49.0,53.0,46.0,34.0,94,57,20,0.00,40.00,6,2,14,0.02
2013-7-2,82.0,64.0,50.0,53.0,47.0,41.0,97,61,24,0.00,40.00,4,2,12,0.01
2013-7-3,83.0,65.2,48.0,51.0,45.6,34.0,96,56,18,0.00,40.00,6,2,14,0.19
2013-7-4,87.0,67.6,56.0,44.0,40.9,30.0,65,41,13,0.00,40.00,4,2,12,0.00
2013-7-5,85.0,67.0,56.0,55.0,50.5,38.0,94,61,25,0.00,40.00,5,2,15,0.43
2013-7-6,83.0,65.0,56.0,55.0,51.3,42.0,93,64,24,0.00,40.00,5,2,13,0.23
2013-7-7,86.0,70.9,56.0,54.0,49.8,43.0,84,52,22,0.00,40.00,4,2,12,0.00
2013-7-8,84.0,69.1,58.0,58.0,52.9,46.0,95,60,28,0.00,40.00,5,2,10,0.49
2013-7-9,85.0,69.2,58.0,54.0,50.7,45.0,75,54,29,0.00,40.00,5,2,12,1.00
2013-7-10,85.0,69.9,58.0,54.0,48.0,-99.9,75,50,29,0.00,40.00,4,2,10,0.12
2013-7-11,85.0,69.9,57.0,57.0,51.6,46.0,83,56,26,0.00,40.00,4,2,9,0.11
2013-7-12,84.0,70.7,58.0,52.0,50.0,46.0,76,51,28,0.00,40.00,6,2,13,0.00
2013-7-13,86.0,70.0,60.0,58.0,50.2,46.0,89,52,25,0.00,40.00,5,2,13,0.04
2013-7-14,89.0,69.2,59.0,56.0,51.4,46.0,81,57,24,0.00,40.00,4,2,12,0.28
2013-7-15,64.0,60.0,56.0,58.0,55.8,53.0,98,87,74,0.00,40.00,3,1,7,0.21
2013-7-16,71.0,65.1,56.0,50.0,47.2,45.0,77,54,39,0.00,40.00,3,1,7,0.12
2013-7-17,74.0,60.5,47.0,49.0,47.1,44.0,94,65,39,0.00,40.00,3,2,11,0.00
2013-7-18,83.0,65.9,49.0,52.0,47.8,46.0,89,57,30,0.00,40.00,4,2,11,0.00
2013-7-19,78.0,63.2,54.0,54.0,51.2,48.0,87,67,37,0.00,40.00,4,2,10,0.13
2013-7-20,84.0,64.5,55.0,56.0,50.3,-99.9,89,65,28,0.00,40.00,4,2,11,0.14
2013-7-21,83.0,67.7,57.0,55.0,49.6,42.0,86,57,27,0.00,40.00,7,2,18,0.13
2013-7-22,89.0,70.8,54.0,49.0,44.0,33.0,74,42,18,0.00,40.00,7,2,19,0.00
2013-7-23,88.0,70.8,61.0,48.0,44.7,41.0,54,41,20,0.00,40.00,6,2,17,0.01
2013-7-24,88.0,69.1,55.0,51.0,45.0,35.0,81,46,15,0.00,40.00,6,3,14,0.01
2013-7-25,83.0,68.1,53.0,54.0,49.8,47.0,93,56,28,0.00,40.00,4,2,19,1.71
2013-7-26,81.0,63.3,54.0,59.0,54.6,51.0,97,77,37,0.00,40.00,4,2,19,2.02
2013-7-27,76.0,64.1,51.0,56.0,50.8,48.0,98,66,40,0.00,40.00,4,2,9,0.08
2013-7-28,77.0,64.3,56.0,58.0,53.9,51.0,90,71,40,0.00,40.00,5,2,13,0.13
2013-7-29,81.0,66.8,53.0,53.0,48.7,40.0,94,58,23,0.00,40.00,5,3,15,0.03
2013-7-30,87.0,70.3,56.0,47.0,43.2,40.0,65,41,22,0.00,40.00,5,2,14,0.00
2013-7-31,89.0,73.2,57.0,46.0,39.9,35.0,51,33,15,0.00,40.00,4,2,11,0.00
2013-8-1,83.0,70.1,61.0,55.0,49.2,44.0,79,50,25,0.00,40.00,4,2,14,0.00
2013-8-2,82.0,68.0,55.0,57.0,52.1,46.0,94,61,29,0.00,40.00,5,2,11,0.19
2013-8-3,84.0,67.6,52.0,56.0,51.5,46.0,98,63,27,0.00,40.00,4,2,13,0.23
2013-8-4,85.0,70.9,59.0,59.0,50.5,47.0,78,51,27,0.00,40.00,4,2,8,0.00
2013-8-5,83.0,65.4,55.0,57.0,53.1,48.0,93,69,31,0.00,40.00,4,2,9,0.02
2013-8-6,84.0,66.4,56.0,56.0,48.8,43.0,93,58,26,0.00,40.00,4,2,11,0.48
2013-8-7,77.0,63.9,52.0,55.0,51.6,49.0,94,68,41,0.00,40.00,4,2,13,0.42
2013-8-8,74.0,62.3,52.0,52.0,48.8,44.0,92,64,38,0.00,40.00,5,2,16,0.00
2013-8-9,77.0,61.8,46.0,49.0,43.0,35.0,88,55,24,0.00,40.00,5,2,12,0.00
2013-8-10,80.0,63.2,52.0,50.0,46.8,43.0,87,59,31,0.00,40.00,4,2,10,0.18
2013-8-11,79.0,63.3,49.0,52.0,46.6,40.0,94,60,25,0.00,40.00,3,2,10,0.18
2013-8-12,77.0,64.8,56.0,53.0,50.0,48.0,82,61,38,0.00,40.00,4,2,16,0.02
2013-8-13,80.0,65.8,53.0,50.0,43.5,-99.9,80,51,20,0.00,40.00,4,2,9,0.02
2013-8-14,81.0,64.9,52.0,53.0,42.0,33.0,74,47,18,0.00,40.00,3,2,9,0.00
2013-8-15,85.0,62.8,52.0,49.0,28.8,-99.9,67,39,14,0.00,40.00,5,2,13,0.00
2013-8-16,87.0,71.2,55.0,45.0,33.1,-99.9,58,30,11,0.00,40.00,4,2,12,0.00
2013-8-17,89.0,72.1,56.0,43.0,35.4,-99.9,49,29,13,0.00,40.00,4,2,11,0.00
2013-8-18,86.0,73.6,58.0,50.0,40.9,37.0,62,32,20,0.00,40.00,4,2,12,0.00
2013-8-19,88.0,67.0,56.0,50.0,38.4,-99.9,66,45,20,0.00,40.00,4,2,11,0.00
2013-8-20,83.0,65.8,53.0,55.0,46.4,-99.9,79,54,25,0.00,40.00,3,2,9,0.00
2013-8-21,86.0,70.5,56.0,50.0,46.2,41.0,71,45,25,0.00,40.00,3,2,10,0.00
2013-8-22,83.0,68.5,57.0,52.0,45.4,36.0,62,45,27,0.00,40.00,6,2,12,0.01
2013-8-23,84.0,67.4,51.0,46.0,40.5,35.0,56,39,21,0.00,40.00,4,3,14,0.01
2013-8-24,79.0,65.4,56.0,56.0,46.8,-99.9,94,54,31,0.00,40.00,4,2,13,0.09
2013-8-25,79.0,65.2,57.0,58.0,52.3,47.0,82,64,35,0.00,40.00,4,2,12,0.05
2013-8-26,83.0,68.3,55.0,53.0,48.3,42.0,81,52,27,0.00,40.00,4,2,9,0.02
2013-8-27,81.0,63.9,55.0,49.0,45.3,42.0,67,53,32,0.00,40.00,3,2,8,0.00
2013-8-28,83.0,76.0,64.0,49.0,46.1,43.0,56,36,27,0.00,40.00,4,2,11,0.00
2013-8-29,88.0,70.0,58.0,49.0,47.1,45.0,62,46,26,0.00,40.00,3,2,10,0.00
2013-8-30,87.0,69.6,55.0,49.0,46.8,43.0,73,47,23,0.00,40.00,4,2,13,0.00
2013-8-31,90.0,71.0,58.0,48.0,40.9,-99.9,57,37,16,0.00,40.00,4,2,12,0.02
2013-9-1,82.0,68.0,58.0,52.0,46.9,41.0,70,49,28,0.00,40.00,4,2,11,0.02
2013-9-2,83.0,68.1,58.0,51.0,48.4,45.0,71,51,27,0.00,40.00,4,1,10,0.00
2013-9-3,80.0,66.8,54.0,52.0,47.0,40.0,78,52,27,0.00,40.00,4,2,12,0.00
2013-9-4,86.0,68.1,54.0,46.0,41.9,34.0,67,43,20,0.00,40.00,4,2,9,0.00
2013-9-5,88.0,69.9,55.0,39.0,35.2,31.0,48,31,15,0.00,40.00,4,2,14,0.00
2013-9-6,86.0,70.5,54.0,37.0,33.6,28.0,48,28,13,0.00,40.00,4,2,10,0.00
2013-9-7,86.0,70.9,57.0,46.0,40.0,-99.9,58,35,20,0.00,40.00,4,2,10,0.00
2013-9-8,83.0,68.9,53.0,44.0,40.4,38.0,56,37,23,0.00,40.00,4,3,14,0.00
2013-9-9,81.0,66.2,53.0,48.0,43.0,38.0,71,46,24,0.00,40.00,4,2,16,0.00
2013-9-10,65.0,60.5,55.0,59.0,53.1,41.0,98,79,43,0.00,40.00,3,1,10,0.53
2013-9-11,75.0,61.3,55.0,57.0,55.1,53.0,98,83,46,0.00,40.00,3,1,8,0.67
2013-9-12,61.0,56.6,52.0,58.0,55.0,51.0,98,95,80,0.00,40.00,2,0,5,0.54
2013-9-13,60.0,55.7,52.0,56.0,53.4,49.0,98,93,77,0.00,40.00,2,1,8,0.99
2013-9-14,66.0,56.5,53.0,56.0,50.4,-99.9,97,83,62,0.00,40.00,4,1,9,0.27
2013-9-15,70.0,57.7,47.0,54.0,50.3,46.0,97,79,50,0.00,40.00,4,2,11,1.48
2013-9-16,70.0,58.2,49.0,54.0,50.0,47.0,96,76,50,0.00,40.00,4,1,11,0.03
2013-9-17,73.0,61.8,52.0,55.0,50.3,46.0,92,68,43,0.00,40.00,3,2,12,0.00
2013-9-18,61.0,59.1,54.0,55.0,51.2,50.0,97,75,66,0.00,40.00,2,1,8,0.30
2013-9-19,75.0,61.6,52.0,55.0,48.0,34.0,98,67,32,0.00,40.00,3,1,9,0.16
2013-9-20,74.0,58.4,45.0,50.0,42.6,31.0,86,59,26,0.00,40.00,4,2,8,0.00
2013-9-21,72.0,58.1,47.0,54.0,46.6,-99.9,97,71,44,0.00,40.00,3,1,8,0.00
2013-9-22,73.0,57.7,42.0,51.0,44.3,36.0,94,65,26,0.00,40.00,5,2,18,0.33
2013-9-23,63.0,49.3,38.0,40.0,35.1,31.0,91,61,35,0.00,40.00,5,2,15,0.33
2013-9-24,71.0,54.2,41.0,38.0,32.5,25.0,73,47,18,0.00,40.00,3,2,7,0.00
2013-9-25,72.0,61.0,45.0,38.0,34.8,29.0,66,40,26,0.00,40.00,4,2,12,0.00
2013-9-26,72.0,61.4,48.0,37.0,31.5,27.0,59,35,20,0.00,40.00,5,3,18,0.00
2013-9-27,66.0,54.6,38.0,46.0,35.7,22.0,72,50,35,0.00,40.00,6,3,16,0.00
2013-9-28,62.0,46.4,31.0,23.0,17.9,-99.9,53,35,20,0.00,40.00,5,2,13,0.00
2013-9-29,68.0,50.6,37.0,26.0,20.6,15.0,53,34,15,0.00,40.00,5,3,12,0.00
2013-9-30,73.0,56.8,43.0,26.0,21.4,15.0,44,27,13,0.00,40.00,5,2,13,0.00
2013-10-1,75.0,61.5,52.0,30.0,24.4,20.0,29,24,19,0.00,40.00,3,2,9,0.00
2013-10-2,72.0,57.1,44.0,26.0,19.7,16.0,40,25,14,0.00,40.00,4,2,10,0.00
2013-10-3,70.0,56.1,44.0,30.0,24.1,16.0,47,31,16,0.00,40.00,4,2,16,0.00
2013-10-4,57.0,48.3,36.0,27.0,15.0,0.0,62,29,11,0.00,40.00,4,2,12,0.00
2013-10-5,53.0,40.3,25.0,16.0,13.2,9.0,57,35,20,0.00,40.00,6,3,14,0.00
2013-10-6,64.0,45.6,31.0,21.0,15.2,11.0,54,32,15,0.00,40.00,3,2,8,0.00
2013-10-7,69.0,51.4,37.0,20.0,14.0,9.0,37,24,13,0.00,40.00,3,2,9,0.00
2013-10-8,69.0,54.8,42.0,26.0,22.6,16.0,44,30,17,0.00,40.00,5,2,11,0.00
2013-10-9,67.0,56.2,42.0,35.0,25.9,18.0,54,33,16,0.00,40.00,5,2,13,0.00
2013-10-10,62.0,50.1,30.0,41.0,32.2,25.0,93,53,31,0.00,40.00,7,4,18,0.14
2013-10-11,50.0,39.2,29.0,31.0,27.3,23.0,83,63,47,0.00,40.00,5,2,13,0.01
2013-10-12,60.0,44.3,29.0,33.0,26.5,-99.9,88,55,27,0.00,40.00,4,2,11,0.00
2013-10-13,66.0,54.2,38.0,41.0,35.7,29.0,80,52,31,0.00,40.00,6,4,16,0.00
2013-10-14,58.0,49.8,35.0,47.0,28.4,14.0,89,47,19,0.00,40.00,6,2,13,0.12
2013-10-15,56.0,42.7,29.0,37.0,23.4,15.0,95,49,30,0.00,40.00,4,2,12,0.13
2013-10-16,50.0,38.4,31.0,37.0,31.1,20.0,97,78,45,0.00,40.00,3,2,9,0.21
2013-10-17,54.0,38.6,27.0,25.0,19.5,13.0,78,51,19,0.00,40.00,5,2,12,0.04
2013-10-18,53.0,39.9,30.0,20.0,14.8,11.0,66,38,20,0.00,40.00,5,2,13,0.00
2013-10-19,55.0,38.0,24.0,20.0,14.3,-99.9,73,44,18,0.00,40.00,5,2,11,0.00
2013-10-20,59.0,45.0,30.0,19.0,15.8,14.0,57,33,17,0.00,40.00,6,2,13,0.00
2013-10-21,54.0,42.4,28.0,30.0,23.0,15.0,81,49,26,0.00,40.00,3,2,9,0.00
2013-10-22,61.0,44.4,31.0,25.0,18.8,12.0,59,39,15,0.00,40.00,3,2,8,0.00
2013-10-23,64.0,46.3,35.0,24.0,18.3,13.0,50,35,14,0.00,40.00,4,2,8,0.00
2013-10-24,66.0,50.5,37.0,27.0,21.8,18.0,48,34,17,0.00,40.00,3,2,9,0.00
2013-10-25,56.0,46.7,39.0,45.0,40.2,27.0,97,80,37,0.00,40.00,3,2,15,0.64
2013-10-26,58.0,44.0,34.0,41.0,34.2,-99.9,97,74,39,0.00,40.00,4,1,8,0.33
2013-10-27,58.0,44.9,34.0,37.0,32.2,29.0,86,63,41,0.00,40.00,4,2,7,0.01
2013-10-28,58.0,48.6,38.0,36.0,26.8,-99.9,75,48,25,0.00,40.00,4,2,10,0.00
2013-10-29,60.0,50.5,42.0,29.0,21.5,18.0,51,32,23,0.00,40.00,6,3,16,0.00
2013-10-30,50.0,40.8,31.0,34.0,29.4,22.0,95,67,34,0.00,40.00,4,2,14,0.03
2013-10-31,43.0,35.1,29.0,29.0,25.7,23.0,90,70,46,0.00,40.00,6,3,13,0.03
2013-11-1,50.0,35.9,24.0,24.0,22.1,18.0,85,61,30,0.00,40.00,4,2,11,0.01
2013-11-2,57.0,40.6,30.0,27.0,21.5,-99.9,71,50,22,0.00,40.00,3,2,11,0.00
2013-11-3,54.0,43.7,37.0,34.0,26.0,17.0,88,51,34,0.00,40.00,4,2,10,0.01
2013-11-4,56.0,44.0,32.0,37.0,25.4,19.0,94,51,26,0.00,40.00,6,3,14,0.17
2013-11-5,42.0,35.1,22.0,39.0,29.0,16.0,96,80,52,0.00,40.00,6,2,10,0.66
2013-11-6,46.0,30.8,20.0,21.0,15.6,8.0,87,57,25,0.00,40.00,5,2,11,0.02
2013-11-7,54.0,37.7,27.0,27.0,19.1,14.0,71,49,23,0.00,40.00,3,2,8,0.00
2013-11-8,55.0,41.6,30.0,23.0,17.0,12.0,56,38,22,0.00,40.00,6,2,13,0.00
2013-11-9,59.0,42.8,33.0,21.0,16.6,-99.9,52,38,19,0.00,40.00,5,2,10,0.00
2013-11-10,61.0,45.9,36.0,28.0,20.3,15.0,49,38,18,0.00,40.00,3,2,7,0.00
2013-11-11,60.0,44.0,33.0,25.0,17.4,11.0,50,36,15,0.00,40.00,4,2,8,0.00
2013-11-12,52.0,37.4,27.0,30.0,22.9,14.0,94,58,37,0.00,40.00,3,2,8,0.00
2013-11-13,51.0,36.6,25.0,33.0,27.4,23.0,94,71,44,0.00,40.00,3,2,9,0.00
2013-11-14,53.0,37.6,27.0,33.0,27.2,19.0,95,69,32,0.00,40.00,3,1,9,0.00
2013-11-15,50.0,40.7,32.0,38.0,25.8,16.0,94,58,34,0.00,40.00,4,2,10,0.11
2013-11-16,46.0,39.8,37.0,37.0,31.5,-99.9,94,75,54,0.00,40.00,3,2,11,0.16
2013-11-17,49.0,38.4,30.0,28.0,25.2,17.0,85,60,40,0.00,40.00,7,3,18,0.01
2013-11-18,46.0,36.1,29.0,31.0,22.2,14.0,74,58,38,0.00,40.00,3,1,7,0.00
2013-11-19,53.0,41.7,29.0,31.0,26.5,20.0,71,56,42,0.00,40.00,3,2,8,0.00
2013-11-20,45.0,38.3,34.0,35.0,29.3,23.0,95,71,50,0.00,40.00,3,2,9,0.04
2013-11-21,46.0,39.8,34.0,39.0,35.7,31.0,96,86,64,0.00,40.00,3,1,9,0.24
2013-11-22,39.0,27.1,24.0,38.0,25.6,22.0,96,94,92,0.00,40.00,1,0,4,0.44
2013-11-23,29.0,25.0,21.0,27.0,22.3,-99.9,94,92,90,0.00,40.00,0,0,0,0.00
2013-11-24,23.0,19.2,16.0,19.0,15.6,13.0,91,86,72,0.00,40.00,0,0,0,0.00
2013-11-25,34.0,24.4,13.0,26.0,19.7,10.0,91,82,65,0.00,40.00,7,1,16,0.00
2013-11-26,39.0,24.4,15.0,25.0,18.9,12.0,91,81,58,0.00,40.00,2,0,6,0.00
2013-11-27,37.0,26.0,18.0,25.0,19.7,15.0,90,78,60,0.00,40.00,4,1,8,0.00
2013-11-28,47.0,29.4,19.0,27.0,19.6,16.0,91,70,30,0.00,40.00,3,1,6,0.00
2013-11-29,48.0,33.5,22.0,25.0,21.0,16.0,85,62,35,0.00,40.00,5,2,11,0.00
2013-11-30,49.0,34.9,27.0,26.0,21.5,-99.9,85,62,34,0.00,40.00,4,2,11,0.00
2013-12-1,45.0,34.3,27.0,26.0,19.3,11.0,75,56,27,0.00,40.00,5,2,12,0.00
2013-12-2,51.0,38.6,26.0,23.0,18.0,13.0,76,46,27,0.00,40.00,6,3,15,0.00
2013-12-3,51.0,40.6,30.0,18.0,16.6,15.0,59,39,25,0.00,40.00,5,2,11,0.00
2013-12-4,48.0,38.8,30.0,25.0,20.2,14.0,78,49,29,0.00,40.00,6,3,23,0.00
2013-12-5,30.0,23.7,14.0,23.0,17.9,11.0,90,78,63,0.00,40.00,4,2,10,0.00
2013-12-6,27.0,19.7,13.0,14.0,8.7,3.0,87,63,40,0.00,40.00,4,2,13,0.01
2013-12-7,29.0,20.1,8.0,23.0,12.7,-99.9,91,76,47,0.00,40.00,4,2,13,0.01
2013-12-8,25.0,21.0,15.0,18.0,8.0,-3.0,87,58,31,0.00,40.00,6,3,15,0.01
2013-12-9,21.0,12.8,1.0,12.0,1.0,-8.0,86,61,27,0.00,40.00,6,2,17,0.01
2013-12-10,32.0,16.8,-1.0,3.0,-1.8,-9.0,69,45,28,0.00,40.00,3,2,7,0.03
2013-12-11,35.0,22.7,15.0,8.0,4.6,2.0,58,47,30,0.00,40.00,3,1,6,0.02
2013-12-12,40.0,27.7,17.0,20.0,6.9,0.0,65,42,27,0.00,40.00,3,1,6,0.01
2013-12-13,38.0,30.6,22.0,27.0,20.4,15.0,91,66,49,0.00,40.00,5,2,13,0.02
2013-12-14,38.0,24.5,17.0,15.0,11.7,-99.9,84,63,33,0.00,40.00,3,2,7,0.02
2013-12-15,47.0,28.2,16.0,16.0,12.2,9.0,77,55,26,0.00,40.00,6,3,16,0.00
2013-12-16,49.0,32.1,22.0,17.0,13.2,9.0,61,47,27,0.00,40.00,4,2,10,0.00
2013-12-17,51.0,36.6,25.0,16.0,11.8,3.0,56,37,21,0.00,40.00,3,2,6,0.00
2013-12-18,49.0,35.2,25.0,18.0,12.0,7.0,53,39,23,0.00,40.00,3,2,7,0.00
2013-12-19,48.0,37.0,28.0,20.0,17.3,12.0,61,46,30,0.00,40.00,4,2,10,0.00
2013-12-20,45.0,33.3,27.0,20.0,16.9,15.0,69,52,32,0.00,40.00,3,2,8,0.00
2013-12-21,33.0,26.8,22.0,23.0,18.5,-99.9,92,74,51,0.00,40.00,5,2,14,0.00
2013-12-22,32.0,24.0,16.0,23.0,17.6,10.0,93,78,50,0.00,40.00,3,1,7,0.02
2013-12-23,37.0,22.3,12.0,14.0,9.8,7.0,80,61,32,0.00,40.00,3,2,10,0.01
2013-12-24,46.0,29.5,19.0,20.0,15.1,8.0,78,56,34,0.00,40.00,4,2,8,0.01
2013-12-25,40.0,24.7,14.0,13.0,5.3,-3.0,75,47,18,0.00,40.00,4,2,11,0.00
2013-12-26,46.0,26.6,16.0,8.0,3.5,1.0,54,39,17,0.00,40.00,5,2,13,0.00
2013-12-27,46.0,29.6,21.0,13.0,9.3,7.0,55,44,22,0.00,40.00,3,2,7,0.00
2013-12-28,44.0,31.6,21.0,17.0,11.0,-99.9,64,45,26,0.00,40.00,5,2,10,0.00
2013-12-29,33.0,28.4,19.0,21.0,17.7,15.0,86,65,53,0.00,40.00,3,1,8,0.00
2013-12-30,41.0,26.8,17.0,16.0,12.3,5.0,85,59,25,0.00,40.00,5,2,11,0.00
2013-12-31,45.0,29.2,18.0,16.0,12.9,10.0,73,53,30,0.00,40.00,5,2,12,0.00
2014-1-1,44.0,34.1,26.0,19.0,15.2,12.0,60,47,29,0.00,40.00,6,3,18,0.00
2014-1-2,44.0,27.8,16.0,17.0,9.9,2.0,73,50,22,0.00,40.00,3,1,7,0.00